User: anonymous   Login
Location: *
(1.3500°S, 147.5000°W)
Time: 17:38:20
(UTC+00:00)
Language:

Meteor 2-10 - Orbit

View from above orbital plane
View from above orbital plane
View from above satellite
View from above satellite

Ground track
Ground track

The orbit data is extracted from the following two-line orbital elements,

1 14452U 83109A   20184.81765659 +.00000081 +00000-0 +27091-4 0  9991
2 14452 081.1616 034.1966 0091584 036.5426 324.1954 14.26505851907228
Epoch (UTC): 02 July 2020 19:37:25
Eccentricity: 0.0091584
inclination: 81.1616°
perigee height: 737 km
apogee height: 869 km
right ascension of ascending node: 34.1966°
argument of perigee: 36.5426°
revolutions per day: 14.26505851
mean anomaly at epoch: 324.1954°
orbit number at epoch: 90722

The dashed part of the orbit path shows where the satellite is in the earth's shadow,  

DLR